CZ-4 DEB, 35320

Orbit data source: Space-Track

CZ-4 DEB, 35320 is space debris in SSO originally from a launch on Thu, 14 Oct 1999 UTC launched from the Taiyaun Space Center, China (TSC). Debris objects in space refer to the collection of defunct objects orbiting the Earth. Examples of debris include non-operational satellites, rocket bodies, and fragments generated from explosions, collisions, or faulty payload assembly.

Loading next visibility...
Identifier
35320, 1999-057RY
Orbit
SSO
Country
Flag of CNCN / PRC
Related business
Manufacturer
Unknown
Mission
Spacecraft
Bus & Motor
Unknown
Mass
Unknown
Launch date (UTC)
1999-10-14 (27 years ago)
Launch vehicle
Unknown
Launch site
Taiyaun Space Center, China (TSC)
Object type
Payload
Rocket body
Debris
Shape & HBR
Unknown shape, 0.1 m
Radar Cross Section
Small (<0.1 m²)

Expand to show TLE details & history
Last TLE update: 2 days ago

TLE from 2 days ago
0 CZ-4 DEB
1 35320U 99057RY  26263.85803588  .00001735  00000-0  21700-3 0  9996
2 35320  98.2697 292.4638 0000808 104.3826 255.7476 14.83669286 59722
Epoch: 2026-09-20T20:35Z
TLE epoch observation values (Epoch: 2026-09-20T20:35:34.300Z)
Latitude
-0.00005°
Longitude
-16.1753°
Altitude
620.92 km
Speed
7.548 km/s
True Right ascension
19h 29m 51s
True Declination
0° 00' 00"
Sunlit
Object was in partial shadow at epoch
Visualization orbit readout
Latitude
Unknown
Longitude
Unknown
Altitude
Unknown
Speed
Unknown
Apparent Right ascension
Unknown
Apparent Declination
Unknown
Sunlit
N/A
Visualization observer readout
Local Sidereal Time
11:53:15
Azimuth
Unknown
Elevation
Unknown
Doppler factor
Unknown
Orbital elements
Apogee altitude
615.384 km
Perigee altitude
614.254 km
Semi-major axis
6,992.956 km
Eccentricity
0.00008
Inclination
98.2697°
RAAN
292.4638°
Arg. of periapsis
104.3826°
True anomaly
255.73863°
Mean anomaly
255.7476°
Eccentric anomaly
255.74311°
Mean motion
3.71152 °/min
Orbital period
97 mins
BSTAR
0.000217
Loading maneuver chart data...
Computing Atmospheric mass density...

Documentation

Showing up to 5 results
|